^^
Saratoga-Weather Station Historical Data
Daily Summary for March 24, 2020 Units:  English    Metric   Both
Daily Weekly Monthly Yearly Custom
  High: Low: Average:
Temperature: 79.9 °F 61.7 °F 70 °F
Dew Point: 59.9 °F 48.7 °F 54.3 °F
Humidity: 81% 40% 59%
Wind Speed: 14.1mph 0mph 2.4mph
Wind Gust: 18mph - -
Wind- - West
Pressure: 29.9 in 29.9 in -
Precipitation: 0 in    
Historical Graphs
 
 
Tabular Data for March 24, 2020
Time Temperature Dew Point Pressure Wind Wind Speed Wind Gust Humidity Rainfall Rate (Hourly) solar
00:01 69.4 °F 52.5 °F 29.9 in Calm     55% 0 in 0 W/m2
00:06 69.3 °F 52.9 °F 29.9 in Calm     56% 0 in 0 W/m2
00:11 69.1 °F 52.7 °F 29.9 in Calm     56% 0 in 0 W/m2
00:16 68.7 °F 52.9 °F 29.9 in Calm     57% 0 in 0 W/m2
00:21 68.5 °F 52.7 °F 29.9 in Calm     57% 0 in 0 W/m2
00:26 68.4 °F 52.5 °F 29.9 in Calm     57% 0 in 0 W/m2
00:31 68.2 °F 52.9 °F 29.9 in Calm     58% 0 in 0 W/m2
00:36 67.8 °F 52.9 °F 29.9 in Calm     59% 0 in 0 W/m2
00:41 67.6 °F 52.9 °F 29.9 in Calm     59% 0 in 0 W/m2
00:46 67.5 °F 52.7 °F 29.9 in Calm     59% 0 in 0 W/m2
00:51 67.3 °F 52.5 °F 29.9 in Calm     59% 0 in 0 W/m2
00:56 66.7 °F 52.3 °F 29.9 in Calm     60% 0 in 0 W/m2
01:01 66.6 °F 52.2 °F 29.9 in Calm     60% 0 in 0 W/m2
01:11 66 °F 52.7 °F 29.9 in Calm     62% 0 in 0 W/m2
01:16 66 °F 52.7 °F 29.9 in Calm     62% 0 in 0 W/m2
01:22 66 °F 53.1 °F 29.9 in Calm     63% 0 in 0 W/m2
01:27 65.8 °F 52.9 °F 29.9 in Calm     63% 0 in 0 W/m2
01:32 65.8 °F 52.9 °F 29.9 in WSW 0.9 mph 2 mph 63% 0 in 0 W/m2
01:37 65.8 °F 52.9 °F 29.9 in Calm   1 mph 63% 0 in 0 W/m2
01:42 66 °F 53.1 °F 29.9 in Calm     63% 0 in 0 W/m2
01:47 65.8 °F 52.9 °F 29.9 in WSW 0.9 mph 1 mph 63% 0 in 0 W/m2
01:52 65.8 °F 52.9 °F 29.9 in Calm   1 mph 63% 0 in 0 W/m2
01:57 65.8 °F 53.2 °F 29.9 in Calm     64% 0 in 0 W/m2
02:02 65.7 °F 53.2 °F 29.9 in Calm   1 mph 64% 0 in 0 W/m2
02:07 65.5 °F 53.1 °F 29.9 in Calm     64% 0 in 0 W/m2
02:12 65.3 °F 53.2 °F 29.9 in Calm     65% 0 in 0 W/m2
02:17 64.9 °F 52.9 °F 29.9 in Calm     65% 0 in 0 W/m2
02:22 64.8 °F 53.1 °F 29.9 in Calm     66% 0 in 0 W/m2
02:27 64.6 °F 52.9 °F 29.9 in Calm     66% 0 in 0 W/m2
02:32 64.4 °F 52.9 °F 29.9 in Calm     66% 0 in 0 W/m2
02:37 64.2 °F 52.2 °F 29.9 in Calm     65% 0 in 0 W/m2
02:42 64.2 °F 52.2 °F 29.9 in Calm     65% 0 in 0 W/m2
02:47 64.4 °F 52.3 °F 29.9 in Calm     65% 0 in 0 W/m2
02:52 64.4 °F 52.3 °F 29.9 in Calm     65% 0 in 0 W/m2
02:57 64.4 °F 52.9 °F 29.9 in Calm     66% 0 in 0 W/m2
03:02 64.2 °F 52.7 °F 29.9 in Calm     66% 0 in 0 W/m2
03:07 64 °F 52.5 °F 29.9 in Calm     66% 0 in 0 W/m2
03:12 64 °F 52.5 °F 29.9 in Calm     66% 0 in 0 W/m2
03:17 63.9 °F 52.7 °F 29.9 in Calm     67% 0 in 0 W/m2
03:22 63.9 °F 52.7 °F 29.9 in Calm     67% 0 in 0 W/m2
03:27 63.7 °F 52.5 °F 29.9 in Calm     67% 0 in 0 W/m2
03:32 63.7 °F 52.5 °F 29.9 in Calm     67% 0 in 0 W/m2
03:37 63.3 °F 52.2 °F 29.9 in Calm     67% 0 in 0 W/m2
03:42 63.3 °F 52.2 °F 29.9 in Calm     67% 0 in 0 W/m2
03:47 63.1 °F 52 °F 29.9 in Calm     67% 0 in 0 W/m2
03:52 63 °F 51.8 °F 29.9 in Calm     67% 0 in 0 W/m2
03:57 62.6 °F 52 °F 29.9 in Calm     68% 0 in 0 W/m2
04:02 62.4 °F 51.8 °F 29.9 in Calm     68% 0 in 0 W/m2
04:07 62.2 °F 51.6 °F 29.9 in Calm     68% 0 in 0 W/m2
04:12 62.2 °F 51.6 °F 29.9 in Calm     68% 0 in 0 W/m2
04:17 62.1 °F 51.4 °F 29.9 in Calm     68% 0 in 0 W/m2
04:22 62.1 °F 51.8 °F 29.9 in Calm     69% 0 in 0 W/m2
04:27 62.1 °F 51.4 °F 29.9 in Calm     68% 0 in 0 W/m2
04:32 61.9 °F 51.6 °F 29.9 in Calm     69% 0 in 0 W/m2
04:37 61.7 °F 51.4 °F 29.9 in Calm     69% 0 in 0 W/m2
04:42 61.7 °F 51.4 °F 29.9 in Calm     69% 0 in 0 W/m2
04:47 61.7 °F 51.4 °F 29.9 in Calm     69% 0 in 0 W/m2
04:52 61.7 °F 51.4 °F 29.9 in Calm     69% 0 in 0 W/m2
04:57 61.7 °F 51.4 °F 29.9 in Calm     69% 0 in 0 W/m2
05:02 61.7 °F 51.8 °F 29.9 in Calm     70% 0 in 0 W/m2
05:07 61.7 °F 51.8 °F 29.9 in Calm     70% 0 in 0 W/m2
05:12 61.7 °F 51.8 °F 29.9 in Calm     70% 0 in 0 W/m2
05:17 61.7 °F 52.2 °F 29.9 in Calm     71% 0 in 0 W/m2
05:22 61.7 °F 51.8 °F 29.9 in Calm     70% 0 in 0 W/m2
05:27 61.9 °F 52 °F 29.9 in Calm     70% 0 in 0 W/m2
05:32 62.1 °F 51.8 °F 29.9 in Calm     69% 0 in 0 W/m2
05:37 62.2 °F 51.6 °F 29.9 in Calm     68% 0 in 0 W/m2
05:42 62.2 °F 51.6 °F 29.9 in Calm     68% 0 in 0 W/m2
05:47 62.4 °F 51.8 °F 29.9 in Calm     68% 0 in 0 W/m2
05:52 62.4 °F 51.8 °F 29.9 in Calm     68% 0 in 0 W/m2
05:57 62.8 °F 51.6 °F 29.9 in Calm     67% 0 in 0 W/m2
06:02 62.8 °F 51.6 °F 29.9 in Calm     67% 0 in 0 W/m2
06:07 62.8 °F 51.6 °F 29.9 in Calm     67% 0 in 0 W/m2
06:12 63 °F 51.8 °F 29.9 in Calm     67% 0 in 0 W/m2
06:17 63 °F 51.8 °F 29.9 in Calm   1 mph 67% 0 in 0 W/m2
06:22 63.3 °F 51.8 °F 29.9 in WSW 0.9 mph 1 mph 66% 0 in 0 W/m2
06:27 63.3 °F 51.8 °F 29.9 in Calm     66% 0 in 5 W/m2
06:32 63.5 °F 52 °F 29.9 in Calm     66% 0 in 7 W/m2
06:37 63.5 °F 52.3 °F 29.9 in Calm     67% 0 in 12 W/m2
06:42 63.7 °F 52.2 °F 29.9 in Calm     66% 0 in 16 W/m2
06:47 63.7 °F 52.5 °F 29.9 in Calm     67% 0 in 16 W/m2
06:52 63.9 °F 52.7 °F 29.9 in Calm     67% 0 in 18 W/m2
06:57 63.9 °F 52.7 °F 29.9 in Calm     67% 0 in 23 W/m2
07:07 63.9 °F 53.1 °F 29.9 in Calm   1 mph 68% 0 in 39 W/m2
07:12 64 °F 52.9 °F 29.9 in Calm     67% 0 in 39 W/m2
07:17 64.2 °F 53.1 °F 29.9 in Calm   1 mph 67% 0 in 42 W/m2
07:22 64.2 °F 53.1 °F 29.9 in Calm   1 mph 67% 0 in 42 W/m2
07:27 64.4 °F 53.2 °F 29.9 in Calm     67% 0 in 39 W/m2
07:32 64.6 °F 53.4 °F 29.9 in Calm   1 mph 67% 0 in 44 W/m2
07:37 64.6 °F 53.4 °F 29.9 in Calm     67% 0 in 53 W/m2
07:42 64.6 °F 53.4 °F 29.9 in Calm     67% 0 in 56 W/m2
07:47 64.6 °F 53.4 °F 29.9 in Calm   1 mph 67% 0 in 49 W/m2
07:52 64.6 °F 52.5 °F 29.9 in Calm     65% 0 in 42 W/m2
07:57 64.8 °F 53.6 °F 29.9 in Calm     67% 0 in 40 W/m2
08:02 64.8 °F 54 °F 29.9 in Calm     68% 0 in 46 W/m2
08:07 64.9 °F 53.8 °F 29.9 in Calm     67% 0 in 53 W/m2
08:12 64.9 °F 54.1 °F 29.9 in Calm     68% 0 in 53 W/m2
08:17 64.9 °F 54.1 °F 29.9 in Calm     68% 0 in 46 W/m2
08:22 64.9 °F 54.1 °F 29.9 in Calm     68% 0 in 44 W/m2
08:27 65.1 °F 54.7 °F 29.9 in Calm     69% 0 in 46 W/m2
08:32 65.1 °F 54.7 °F 29.9 in Calm     69% 0 in 46 W/m2
08:37 65.1 °F 54.7 °F 29.9 in WSW 0.9 mph 1 mph 69% 0 in 51 W/m2
08:42 65.1 °F 54.3 °F 29.9 in WSW 0.9 mph 2 mph 68% 0 in 51 W/m2
08:47 65.3 °F 54.5 °F 29.9 in WSW 0.9 mph 3 mph 68% 0 in 63 W/m2
08:52 65.5 °F 54.3 °F 29.9 in Calm   2 mph 67% 0 in 86 W/m2
08:57 65.8 °F 53.2 °F 29.9 in NNW 2 mph 3 mph 64% 0 in 102 W/m2
09:02 66.4 °F 52.9 °F 29.9 in WNW 4 mph 4 mph 62% 0 in 128 W/m2
09:07 66.7 °F 52.9 °F 29.9 in West 2 mph 3 mph 61% 0 in 141 W/m2
09:12 66.9 °F 53.1 °F 29.9 in WSW 4.9 mph 8 mph 61% 0 in 169 W/m2
09:17 67.1 °F 53.2 °F 29.9 in WNW 4.9 mph 8 mph 61% 0 in 220 W/m2
09:22 67.3 °F 52.9 °F 29.9 in West 6 mph 7 mph 60% 0 in 230 W/m2
09:27 67.5 °F 53.1 °F 29.9 in West 6 mph 6 mph 60% 0 in 200 W/m2
09:32 67.8 °F 52.9 °F 29.9 in WNW 2.9 mph 7 mph 59% 0 in 178 W/m2
09:37 68 °F 52.2 °F 29.9 in West 6 mph 7 mph 57% 0 in 199 W/m2
09:42 68.2 °F 52.3 °F 29.9 in NW 2.9 mph 7 mph 57% 0 in 258 W/m2
09:47 68.5 °F 52.2 °F 29.9 in WSW 6.9 mph 9 mph 56% 0 in 236 W/m2
09:52 68.9 °F 51.6 °F 29.9 in West 4 mph 7 mph 54% 0 in 271 W/m2
09:57 70 °F 52 °F 29.9 in West 8.9 mph 9 mph 53% 0 in 666 W/m2
10:02 70.5 °F 51.4 °F 29.9 in WNW 2 mph 4 mph 51% 0 in 316 W/m2
10:07 71.1 °F 52 °F 29.9 in North 4 mph 5 mph 51% 0 in 288 W/m2
10:12 71.1 °F 51.4 °F 29.9 in WNW 4 mph 4 mph 50% 0 in 279 W/m2
10:17 71.4 °F 51.8 °F 29.9 in West 2.9 mph 3 mph 50% 0 in 497 W/m2
10:22 71.8 °F 50.5 °F 29.9 in WSW 6.9 mph 9 mph 47% 0 in 294 W/m2
10:27 71.8 °F 50.5 °F 29.9 in West 6 mph 9 mph 47% 0 in 448 W/m2
10:32 72.1 °F 50.2 °F 29.9 in NW 2 mph 6 mph 46% 0 in 499 W/m2
10:37 72.9 °F 50.9 °F 29.9 in WNW 4 mph 9 mph 46% 0 in 557 W/m2
10:42 73.2 °F 48.7 °F 29.9 in WNW 2.9 mph 7 mph 42% 0 in 413 W/m2
10:47 73.2 °F 49.5 °F 29.9 in West 6 mph 7 mph 43% 0 in 366 W/m2
10:52 73.2 °F 50 °F 29.9 in WSW 4 mph 6 mph 44% 0 in 327 W/m2
10:57 72.9 °F 50.4 °F 29.9 in West 6 mph 6 mph 45% 0 in 311 W/m2
11:02 72.9 °F 49.6 °F 29.9 in NNW 2 mph 5 mph 44% 0 in 334 W/m2
11:07 72.9 °F 50.4 °F 29.9 in WNW 2.9 mph 4 mph 45% 0 in 327 W/m2
11:12 72.7 °F 49.5 °F 29.9 in WNW 4.9 mph 7 mph 44% 0 in 304 W/m2
11:17 72.7 °F 49.5 °F 29.9 in NW 2.9 mph 8 mph 44% 0 in 304 W/m2
11:22 72.7 °F 50.2 °F 29.9 in WSW 2.9 mph 6 mph 45% 0 in 292 W/m2
11:27 72.7 °F 50.2 °F 29.9 in WNW 0.9 mph 8 mph 45% 0 in 257 W/m2
11:32 72.7 °F 50.2 °F 29.9 in NNW 4 mph 7 mph 45% 0 in 306 W/m2
11:37 72.3 °F 49.8 °F 29.9 in WNW 2.9 mph 6 mph 45% 0 in 272 W/m2
11:42 72.1 °F 50.2 °F 29.9 in NNW 2.9 mph 3 mph 46% 0 in 320 W/m2
11:47 72.1 °F 50.7 °F 29.9 in WNW 2 mph 4 mph 47% 0 in 325 W/m2
11:52 72.3 °F 50.4 °F 29.9 in WNW 4 mph 4 mph 46% 0 in 369 W/m2
11:57 72.5 °F 50.5 °F 29.9 in NNW 2 mph 4 mph 46% 0 in 424 W/m2
12:02 72.9 °F 50.9 °F 29.9 in WNW 4 mph 8 mph 46% 0 in 403 W/m2
12:08 73.4 °F 52 °F 29.9 in NW 2 mph 5 mph 47% 0 in 758 W/m2
12:13 73.9 °F 50.7 °F 29.9 in West 2.9 mph 10 mph 44% 0 in 533 W/m2
12:18 74.1 °F 52 °F 29.9 in WSW 2.9 mph 8 mph 46% 0 in 415 W/m2
12:23 74.5 °F 51.1 °F 29.9 in SW 4 mph 11 mph 44% 0 in 380 W/m2
12:28 74.7 °F 53.1 °F 29.9 in WNW 4 mph 7 mph 47% 0 in 450 W/m2
12:33 75.4 °F 52.5 °F 29.9 in NW 4.9 mph 10 mph 45% 0 in 533 W/m2
12:38 75.4 °F 53.2 °F 29.9 in SW 2.9 mph 3 mph 46% 0 in 439 W/m2
12:43 75.7 °F 52.9 °F 29.9 in WSW 4.9 mph 10 mph 45% 0 in 501 W/m2
12:48 75.7 °F 52.9 °F 29.9 in WSW 6.9 mph 7 mph 45% 0 in 471 W/m2
12:53 75.6 °F 53.2 °F 29.9 in WSW 8.1 mph 9 mph 46% 0 in 533 W/m2
12:58 75.6 °F 52.7 °F 29.9 in West 2 mph 4 mph 45% 0 in 443 W/m2
13:03 75.7 °F 52.3 °F 29.9 in NNE 2.9 mph 5 mph 44% 0 in 457 W/m2
13:08 76.3 °F 52.2 °F 29.9 in SW 4 mph 13 mph 43% 0 in 656 W/m2
13:13 76.5 °F 52.9 °F 29.9 in West 8.1 mph 9 mph 44% 0 in 540 W/m2
13:18 75.9 °F 52.5 °F 29.9 in WNW 4 mph 13 mph 44% 0 in 547 W/m2
13:23 75.7 °F 52.9 °F 29.9 in NW 4 mph 13 mph 45% 0 in 547 W/m2
13:28 75.9 °F 53.1 °F 29.9 in SSW 4 mph 8 mph 45% 0 in 889 W/m2
13:34 75.9 °F 53.1 °F 29.9 in West 6 mph 9 mph 45% 0 in 1090 W/m2
13:39 76.5 °F 54.1 °F 29.9 in NW 4 mph 6 mph 46% 0 in 638 W/m2
13:44 77.4 °F 53.8 °F 29.9 in WNW 4.9 mph 5 mph 44% 0 in 990 W/m2
13:49 78.3 °F 53.2 °F 29.9 in West 12.1 mph 14 mph 42% 0 in 758 W/m2
13:54 78.4 °F 53.4 °F 29.9 in WSW 4.9 mph 10 mph 42% 0 in 1021 W/m2
13:59 78.4 °F 52.7 °F 29.9 in NW 14 mph 14 mph 41% 0 in 840 W/m2
14:04 78.4 °F 53.4 °F 29.9 in WNW 2 mph 9 mph 42% 0 in 1055 W/m2
14:09 79 °F 53.2 °F 29.9 in West 2.9 mph 10 mph 41% 0 in 1048 W/m2
14:14 79.3 °F 53.6 °F 29.9 in NW 4 mph 5 mph 41% 0 in 1063 W/m2
14:19 79.3 °F 52.9 °F 29.9 in NW 2 mph 9 mph 40% 0 in 958 W/m2
14:24 78.8 °F 53.8 °F 29.9 in WSW 0.9 mph 9 mph 42% 0 in 1069 W/m2
14:29 79 °F 53.2 °F 29.9 in WNW 14.1 mph 14 mph 41% 0 in 984 W/m2
14:34 78.3 °F 52.7 °F 29.9 in West 4 mph 8 mph 41% 0 in 288 W/m2
14:39 78.3 °F 52.7 °F 29.9 in WNW 2.9 mph 10 mph 41% 0 in 731 W/m2
14:44 78.6 °F 53.6 °F 29.9 in WNW 4 mph 5 mph 42% 0 in 1055 W/m2
14:49 79 °F 53.2 °F 29.9 in NW 6 mph 10 mph 41% 0 in 1041 W/m2
14:54 79 °F 53.2 °F 29.9 in Calm   8 mph 41% 0 in 1025 W/m2
14:59 79.5 °F 53.8 °F 29.9 in NW 2.9 mph 13 mph 41% 0 in 1104 W/m2
15:04 79.5 °F 53.8 °F 29.9 in NNW 4 mph 7 mph 41% 0 in 1179 W/m2
15:09 79.2 °F 54.7 °F 29.9 in West 6.9 mph 14 mph 43% 0 in 376 W/m2
15:14 78.3 °F 55.2 °F 29.9 in WNW 8.1 mph 13 mph 45% 0 in 318 W/m2
15:19 77.9 °F 55.4 °F 29.9 in NW 8.1 mph 8 mph 46% 0 in 341 W/m2
15:24 78.3 °F 55.2 °F 29.9 in NW 4 mph 12 mph 45% 0 in 689 W/m2
15:29 78.3 °F 55.2 °F 29.9 in WNW 2.9 mph 10 mph 45% 0 in 396 W/m2
15:34 78.1 °F 55.6 °F 29.9 in WNW 6.9 mph 9 mph 46% 0 in 278 W/m2
15:39 77.7 °F 55.2 °F 29.9 in WNW 6.9 mph 9 mph 46% 0 in 258 W/m2
15:44 77.5 °F 55.8 °F 29.9 in NNW 4 mph 11 mph 47% 0 in 283 W/m2
15:49 77.5 °F 55.8 °F 29.9 in West 11 mph 12 mph 47% 0 in 1002 W/m2
15:54 78.6 °F 56.1 °F 29.9 in NNW 6 mph 13 mph 46% 0 in 932 W/m2
15:59 79 °F 56.5 °F 29.9 in SW 6.9 mph 9 mph 46% 0 in 900 W/m2
16:04 79.3 °F 56.1 °F 29.9 in WSW 8.1 mph 17 mph 45% 0 in 854 W/m2
16:09 79.9 °F 56.7 °F 29.9 in West 4 mph 7 mph 45% 0 in 874 W/m2
16:14 79.2 °F 55.9 °F 29.9 in NNW 8.1 mph 11 mph 45% 0 in 248 W/m2
16:19 78.1 °F 56.3 °F 29.9 in WNW 6.9 mph 7 mph 47% 0 in 218 W/m2
16:24 77.7 °F 56.5 °F 29.9 in WNW 4 mph 12 mph 48% 0 in 264 W/m2
16:29 77.4 °F 56.1 °F 29.9 in West 6 mph 11 mph 48% 0 in 255 W/m2
16:34 77 °F 55.8 °F 29.9 in NW 4 mph 8 mph 48% 0 in 279 W/m2
16:39 76.8 °F 56.8 °F 29.9 in NW 8.1 mph 11 mph 50% 0 in 489 W/m2
16:44 77.4 °F 57.2 °F 29.9 in West 6 mph 8 mph 50% 0 in 278 W/m2
16:49 78.3 °F 58.1 °F 29.9 in West 8.9 mph 9 mph 50% 0 in 722 W/m2
16:54 78.6 °F 56.7 °F 29.9 in WNW 11 mph 11 mph 47% 0 in 315 W/m2
16:59 78.1 °F 56.3 °F 29.9 in WSW 4.9 mph 9 mph 47% 0 in 330 W/m2
17:04 78.1 °F 56.8 °F 29.9 in West 6.9 mph 8 mph 48% 0 in 664 W/m2
17:09 78.1 °F 56.3 °F 29.9 in WNW 4.9 mph 7 mph 47% 0 in 156 W/m2
17:14 77.2 °F 57 °F 29.9 in West 6.9 mph 11 mph 50% 0 in 135 W/m2
17:19 75.6 °F 58.3 °F 29.9 in WNW 10.1 mph 18 mph 55% 0 in 132 W/m2
17:25 74.1 °F 57.9 °F 29.9 in NW 8.9 mph 13 mph 57% 0 in 118 W/m2
17:30 72.9 °F 58.1 °F 29.9 in NW 8.1 mph 14 mph 60% 0 in 111 W/m2
17:35 72.1 °F 57 °F 29.9 in NNW 4.9 mph 13 mph 59% 0 in 111 W/m2
17:40 71.4 °F 57.2 °F 29.9 in NW 4 mph 9 mph 61% 0 in 118 W/m2
17:45 71.2 °F 57.6 °F 29.9 in NNW 0.9 mph 8 mph 62% 0 in 123 W/m2
17:50 71.2 °F 58.5 °F 29.9 in West 2 mph 5 mph 64% 0 in 160 W/m2
17:55 71.2 °F 57.9 °F 29.9 in WNW 2.9 mph 7 mph 63% 0 in 227 W/m2
18:00 71.8 °F 58.1 °F 29.9 in West 4 mph 6 mph 62% 0 in 448 W/m2
18:06 72.1 °F 57.6 °F 29.9 in NW 0.9 mph 7 mph 60% 0 in 309 W/m2
18:11 72.9 °F 57.2 °F 29.9 in WNW 0.9 mph 5 mph 58% 0 in 362 W/m2
18:16 73.6 °F 57.4 °F 29.9 in West 6 mph 9 mph 57% 0 in 332 W/m2
18:21 73.8 °F 57.6 °F 29.9 in WNW 0.9 mph 4 mph 57% 0 in 487 W/m2
18:26 74.7 °F 58.5 °F 29.9 in WNW 2 mph 3 mph 57% 0 in 443 W/m2
18:31 75.2 °F 58.5 °F 29.9 in NW 6.9 mph 10 mph 56% 0 in 206 W/m2
18:36 75.2 °F 58.5 °F 29.9 in WSW 4.9 mph 8 mph 56% 0 in 137 W/m2
18:41 75 °F 58.8 °F 29.9 in West 4 mph 8 mph 57% 0 in 130 W/m2
18:46 74.8 °F 59 °F 29.9 in WNW 2.9 mph 7 mph 58% 0 in 134 W/m2
18:51 74.7 °F 59.4 °F 29.9 in WNW 2.9 mph 8 mph 59% 0 in 132 W/m2
18:56 74.7 °F 59.4 °F 29.9 in NNW 0.9 mph 4 mph 59% 0 in 141 W/m2
19:01 74.7 °F 59.4 °F 29.9 in NNW 0.9 mph 3 mph 59% 0 in 142 W/m2
19:06 74.7 °F 59.4 °F 29.9 in NW 6 mph 8 mph 59% 0 in 142 W/m2
19:11 74.5 °F 59.2 °F 29.9 in WNW 6.9 mph 7 mph 59% 0 in 153 W/m2
19:16 74.5 °F 59.2 °F 29.9 in West 6 mph 6 mph 59% 0 in 169 W/m2
19:21 74.8 °F 59 °F 29.9 in WSW 2.9 mph 9 mph 58% 0 in 113 W/m2
19:26 74.8 °F 59 °F 29.9 in WSW 2 mph 3 mph 58% 0 in 107 W/m2
19:31 74.8 °F 59.5 °F 29.9 in West 2 mph 8 mph 59% 0 in 153 W/m2
19:36 74.8 °F 59 °F 29.9 in WSW 4.9 mph 5 mph 58% 0 in 81 W/m2
19:41 74.7 °F 58.8 °F 29.9 in WNW 2 mph 7 mph 58% 0 in 72 W/m2
19:46 74.7 °F 58.8 °F 29.9 in SW 4 mph 6 mph 58% 0 in 58 W/m2
19:51 74.3 °F 59 °F 29.9 in West 4 mph 8 mph 59% 0 in 63 W/m2
19:56 74.1 °F 58.8 °F 29.9 in WSW 4 mph 4 mph 59% 0 in 51 W/m2
20:01 73.9 °F 59.2 °F 29.9 in WNW 4.9 mph 10 mph 60% 0 in 42 W/m2
20:11 73.2 °F 59.4 °F 29.9 in WNW 2 mph 4 mph 62% 0 in 58 W/m2
20:16 73.2 °F 59.4 °F 29.9 in NW 2.9 mph 3 mph 62% 0 in 102 W/m2
20:21 73.8 °F 59.9 °F 29.9 in WNW 4.9 mph 6 mph 62% 0 in 132 W/m2
20:26 73.9 °F 59.7 °F 29.9 in NW 6 mph 10 mph 61% 0 in 125 W/m2
20:31 73.9 °F 59.7 °F 29.9 in North 2.9 mph 5 mph 61% 0 in 114 W/m2
20:36 73.8 °F 59.9 °F 29.9 in North 2 mph 10 mph 62% 0 in 51 W/m2
20:41 73.2 °F 59.4 °F 29.9 in WNW 4 mph 5 mph 62% 0 in 39 W/m2
20:46 72.9 °F 59 °F 29.9 in WNW 4.9 mph 8 mph 62% 0 in 32 W/m2
20:51 72.7 °F 59.4 °F 29.9 in WNW 2 mph 3 mph 63% 0 in 33 W/m2
20:56 72.7 °F 59.4 °F 29.9 in NW 2.9 mph 7 mph 63% 0 in 33 W/m2
21:01 72.7 °F 59.4 °F 29.9 in WSW 4 mph 5 mph 63% 0 in 35 W/m2
21:06 72.7 °F 59.4 °F 29.9 in Calm   2 mph 63% 0 in 25 W/m2
21:11 72.3 °F 59 °F 29.9 in Calm   2 mph 63% 0 in 14 W/m2
21:16 72 °F 59.2 °F 29.9 in West 0.9 mph 2 mph 64% 0 in 11 W/m2
21:21 71.8 °F 59 °F 29.9 in WNW 0.9 mph 2 mph 64% 0 in 7 W/m2
21:26 71.2 °F 58.8 °F 29.9 in West 2 mph 3 mph 65% 0 in 0 W/m2
21:31 70.9 °F 59 °F 29.9 in West 2 mph 4 mph 66% 0 in 0 W/m2
21:36 70.5 °F 58.6 °F 29.9 in West 2 mph 2 mph 66% 0 in 0 W/m2
21:41 70.3 °F 58.8 °F 29.9 in Calm   4 mph 67% 0 in 0 W/m2
21:46 70.2 °F 58.6 °F 29.9 in Calm   2 mph 67% 0 in 0 W/m2
21:51 70 °F 59 °F 29.9 in West 0.9 mph 1 mph 68% 0 in 0 W/m2
21:56 69.6 °F 58.6 °F 29.9 in Calm   2 mph 68% 0 in 0 W/m2
22:01 69.4 °F 58.8 °F 29.9 in West 0.9 mph 1 mph 69% 0 in 0 W/m2
22:11 68.9 °F 58.6 °F 29.9 in West 0.9 mph 2 mph 70% 0 in 0 W/m2
22:16 68.5 °F 58.8 °F 29.9 in Calm     71% 0 in 0 W/m2
22:21 68.4 °F 58.6 °F 29.9 in West 0.9 mph 1 mph 71% 0 in 0 W/m2
22:26 67.8 °F 58.5 °F 29.9 in West 0.9 mph 1 mph 72% 0 in 0 W/m2
22:31 67.5 °F 58.1 °F 29.9 in West 0.9 mph 2 mph 72% 0 in 0 W/m2
22:36 67.3 °F 58.3 °F 29.9 in Calm   1 mph 73% 0 in 0 W/m2
22:41 66.9 °F 58.3 °F 29.9 in West 2 mph 2 mph 74% 0 in 0 W/m2
22:46 66.6 °F 58.5 °F 29.9 in West 0.9 mph 1 mph 75% 0 in 0 W/m2
22:51 66.4 °F 58.3 °F 29.9 in West 2 mph 2 mph 75% 0 in 0 W/m2
22:56 66 °F 58.3 °F 29.9 in Calm   1 mph 76% 0 in 0 W/m2
23:01 65.7 °F 57.9 °F 29.9 in Calm     76% 0 in 0 W/m2
23:11 65.3 °F 57.9 °F 29.9 in Calm     77% 0 in 0 W/m2
23:16 64.9 °F 57.9 °F 29.9 in Calm     78% 0 in 0 W/m2
23:21 64.9 °F 57.9 °F 29.9 in Calm     78% 0 in 0 W/m2
23:26 64.8 °F 58.1 °F 29.9 in Calm     79% 0 in 0 W/m2
23:31 64.6 °F 57.9 °F 29.9 in Calm     79% 0 in 0 W/m2
23:36 64.2 °F 57.6 °F 29.9 in Calm     79% 0 in 0 W/m2
23:41 64 °F 57.7 °F 29.9 in Calm     80% 0 in 0 W/m2
23:46 64 °F 57.7 °F 29.9 in Calm     80% 0 in 0 W/m2
23:51 63.9 °F 57.6 °F 29.9 in Calm     80% 0 in 0 W/m2
23:56 63.9 °F 57.9 °F 29.9 in Calm     81% 0 in 0 W/m2
Juneau County Weather
Compliments of Weather Underground - 4 mb